Location: Cueva de Ratón
(10.1013°N, 67.6606°W)
Time: 04:32:34
(UTC+00:00)

Cosmos 2266 Rocket - Pass Details

Date: 02 December 2023
Orbit: 935 x 1006 km, 82.9° (Epoch: 25 February)

Event Time Altitude Azimuth Distance (km) Brightness Sun altitude
Rises 23:25:18 0° 172° (S) 3,682 7.2 -18.8°
Reaches altitude 10° 23:27:54 10° 168° (SSE) 2,724 6.4 -19.4°
Maximum altitude 23:33:56 53° 92° (E) 1,174 4.0 -20.8°
Enters shadow 23:36:32 32° 34° (NE) 1,578 4.7 -21.4°
